User: anonymous   Login
Location: Unspecified
(0.0000°N, 0.0000°E)
Time: 22:13:52
(UTC+00:00)
Language:

STARLINK-5331 - Orbit

View from above orbital plane
View from above orbital plane
View from above satellite
View from above satellite

Ground track
Ground track

The orbit is defined by the following mean orbital elements,

1 55280U          26145.34109435 +.00000000 +00000-0 +79346-4 0 00003
2 55280  69.9991 211.3354 0003573 271.9942  88.0808 14.98340070    04
Epoch (UTC): 25 May 2026 08:11:10
Eccentricity: 0.0003573
inclination: 69.9991°
perigee height: 570 km
apogee height: 575 km
right ascension of ascending node: 211.3354°
argument of perigee: 271.9942°
revolutions per day: 14.98340070
mean anomaly at epoch: 88.0808°

The dashed part of the orbit path shows where the satellite is in the earth's shadow,  

DLR